Total_Precipitation_Accumulation
0.21 0.16 0.13 0.12 0.10 0.08 0.08 0.08 0.08 0.06 0.06 0.06 0.06 0.05 0.05 0.05 0.04 0.03 0.02 0.01 0.01 0.02 0.02 0.02 0.02 0.02 0.01 0.00 0.00 0.00 0.00 0.00 0.00 0.00 0.00 0.00 0.00 0.00 0.00 0.00 0.00 0.00 0.00 0.00 0.00 0.02 0.02
0.59 0.51 0.47 0.43 0.38 0.35 0.32 0.27 0.21 0.13 0.09 0.07 0.07 0.07 0.07 0.07 0.05 0.04 0.03 0.01 0.02 0.01 0.02 0.02 0.02 0.04 0.00 0.00 0.00 0.00 0.00 0.00 0.00 0.00 0.00 0.00 0.00 0.00 0.00 0.00 0.00 0.00 0.00 0.00 0.02 0.01 0.02
0.50 0.52 0.49 0.45 0.42 0.35 0.27 0.21 0.17 0.15 0.11 0.08 0.09 0.06 0.05 0.05 0.04 0.03 0.03 0.01 0.02 0.02 0.02 0.02 0.03 0.03 0.00 0.00 0.00 0.00 0.00 0.00 0.00 0.00 0.00 0.00 0.00 0.00 0.00 0.00 0.00 0.00 0.01 0.01 0.04 0.02 0.01
0.50 0.42 0.38 0.35 0.31 0.31 0.27 0.22 0.19 0.16 0.12 0.09 0.07 0.07 0.06 0.05 0.04 0.03 0.02 0.01 0.01 0.01 0.02 0.02 0.03 0.02 0.00 0.00 0.00 0.00 0.00 0.00 0.00 0.00 0.00 0.00 0.00 0.00 0.00 0.00 0.00 0.00 0.00 0.02 0.16 0.03 0.01
0.51 0.48 0.42 0.33 0.30 0.28 0.26 0.22 0.17 0.12 0.10 0.09 0.07 0.05 0.04 0.03 0.03 0.04 0.03 0.02 0.01 0.01 0.02 0.02 0.03 0.02 0.00 0.00 0.00 0.00 0.00 0.00 0.00 0.00 0.00 0.00 0.00 0.00 0.00 0.00 0.00 0.00 0.00 0.00 0.01 0.01 0.01
0.45 0.42 0.39 0.34 0.32 0.29 0.24 0.20 0.16 0.11 0.11 0.10 0.07 0.05 0.05 0.06 0.06 0.05 0.03 0.01 0.01 0.01 0.01 0.00 0.02 0.01 0.00 0.00 0.00 0.00 0.00 0.01 0.03 0.00 0.00 0.00 0.00 0.00 0.00 0.00 0.00 0.00 0.00 0.00 0.02 0.01 0.00
0.57 0.52 0.46 0.40 0.34 0.34 0.36 0.34 0.27 0.22 0.17 0.12 0.08 0.05 0.03 0.02 0.04 0.05 0.01 0.01 0.00 0.00 0.00 0.00 0.01 0.00 0.00 0.00 0.00 0.00 0.00 0.01 0.01 0.00 0.01 0.02 0.00 0.01 0.00 0.00 0.00 0.00 0.00 0.00 0.00 0.01 0.00
0.55 0.58 0.54 0.43 0.36 0.31 0.31 0.32 0.30 0.27 0.21 0.17 0.13 0.09 0.05 0.05 0.07 0.06 0.01 0.00 0.01 0.05 0.07 0.00 0.00 0.00 0.00 0.00 0.00 0.00 0.00 0.00 0.00 0.01 0.03 0.04 0.03 0.01 0.01 0.00 0.00 0.00 0.01 0.00 0.00 0.00 0.00
0.77 0.68 0.65 0.67 0.54 0.39 0.33 0.31 0.25 0.20 0.20 0.18 0.12 0.09 0.08 0.09 0.10 0.04 0.00 0.00 0.00 0.01 0.06 0.00 0.00 0.00 0.00 0.00 0.00 0.00 0.00 0.00 0.01 0.03 0.03 0.05 0.02 0.00 0.00 0.00 0.01 0.00 0.00 0.00 0.00 0.00 0.01
1.01 0.78 0.69 0.65 0.69 0.64 0.50 0.38 0.30 0.22 0.17 0.14 0.11 0.11 0.14 0.14 0.06 0.00 0.00 0.00 0.00 0.03 0.20 0.04 0.00 0.00 0.00 0.01 0.01 0.00 0.00 0.05 0.07 0.06 0.05 0.06 0.00 0.01 0.04 0.04 0.01 0.00 0.00 0.01 0.01 0.03 0.08
1.26 1.08 0.91 0.76 0.71 0.68 0.61 0.49 0.35 0.23 0.22 0.20 0.15 0.13 0.13 0.12 0.03 0.01 0.01 0.00 0.01 0.16 0.48 0.05 0.00 0.01 0.00 0.02 0.04 0.02 0.00 0.01 0.04 0.04 0.10 0.12 0.01 0.07 0.08 0.03 0.02 0.01 0.01 0.05 0.05 0.06 0.05
1.49 1.34 1.21 1.01 0.79 0.62 0.57 0.55 0.48 0.34 0.26 0.26 0.24 0.23 0.24 0.12 0.08 0.02 0.01 0.02 0.22 0.59 0.47 0.04 0.01 0.01 0.01 0.00 0.00 0.00 0.00 0.02 0.02 0.03 0.03 0.02 0.02 0.05 0.04 0.01 0.04 0.08 0.05 0.11 0.10 0.13 0.15
1.76 1.57 1.42 1.24 1.07 0.82 0.66 0.56 0.53 0.46 0.39 0.38 0.29 0.24 0.27 0.11 0.07 0.02 0.03 0.25 0.64 0.63 0.07 0.03 0.03 0.00 0.01 0.03 0.02 0.02 0.05 0.03 0.04 0.07 0.10 0.08 0.09 0.01 0.01 0.01 0.04 0.11 0.25 0.47 0.52 0.33 0.12
2.42 1.95 1.67 1.42 1.22 1.09 0.88 0.78 0.64 0.65 0.62 0.62 0.56 0.49 0.30 0.12 0.07 0.11 0.23 0.70 0.74 0.11 0.02 0.01 0.00 0.01 0.10 0.20 0.16 0.08 0.08 0.02 0.01 0.02 0.08 0.18 0.21 0.10 0.00 0.01 0.04 0.09 0.27 0.39 0.56 0.26 0.12
3.23 2.53 1.93 1.56 1.38 1.19 1.22 1.01 0.90 0.77 0.74 0.89 1.23 0.90 0.56 0.19 0.18 0.35 1.02 1.33 0.24 0.04 0.11 0.07 0.04 0.11 0.28 0.11 0.35 0.26 0.05 0.02 0.06 0.09 0.27 0.29 0.22 0.07 0.01 0.04 0.12 0.17 0.16 0.12 0.67 0.42 0.42
4.07 3.97 2.99 2.41 1.84 1.57 1.42 1.43 1.30 1.13 1.11 1.48 1.57 1.40 0.79 0.32 0.62 1.43 2.19 1.04 0.07 0.05 0.10 0.22 0.44 0.24 0.36 0.12 0.39 0.18 0.14 0.09 0.06 0.04 0.11 0.31 0.62 0.20 0.06 0.07 0.07 0.14 0.25 0.46 0.92 1.01 0.80
4.08 3.94 4.20 3.48 2.83 2.13 1.94 1.87 1.91 1.85 2.02 2.76 3.26 3.26 1.35 0.55 1.91 3.42 2.33 0.36 0.02 0.03 0.21 0.54 0.48 0.46 0.54 0.43 0.49 0.22 0.31 0.21 0.11 0.05 0.09 0.37 0.87 0.50 0.16 0.15 0.16 0.24 0.39 0.43 0.62 0.65 1.33
3.67 3.89 3.69 3.63 3.44 2.96 2.57 2.36 2.53 3.08 3.97 5.01 5.11 4.03 2.12 1.34 3.02 2.79 1.01 0.14 0.14 0.17 0.27 0.48 0.48 0.60 0.85 0.61 0.69 0.72 0.45 0.42 0.14 0.03 0.06 0.14 0.96 0.77 0.26 0.12 0.18 0.27 0.24 0.40 1.47 1.09 1.23
3.11 3.01 3.41 3.69 3.51 3.55 3.19 2.86 2.85 3.30 3.91 4.85 5.97 4.00 3.73 2.56 2.32 1.42 0.58 0.34 0.31 0.28 0.24 0.43 0.48 0.76 0.85 1.01 1.28 1.28 0.63 0.20 0.06 0.04 0.17 0.30 0.91 0.63 0.54 0.63 0.33 0.24 0.28 0.48 0.80 1.42 1.99
3.44 3.30 3.03 3.28 3.93 4.10 3.93 4.13 4.22 4.36 4.83 5.44 6.47 5.40 6.10 5.17 1.90 0.63 0.68 0.69 0.45 0.23 0.28 0.36 0.59 0.82 0.88 1.04 1.06 1.29 0.64 0.14 0.04 0.03 0.12 0.47 0.63 0.62 0.92 0.95 0.87 0.62 0.41 0.50 1.14 2.17 1.70
3.04 3.18 3.29 3.32 3.55 4.24 4.68 5.12 5.27 5.20 5.66 7.99 8.35 4.57 2.72 3.35 1.88 0.90 0.88 1.09 0.60 0.46 0.54 0.68 1.08 0.63 0.72 1.49 1.02 0.75 0.61 0.32 0.17 0.16 0.17 0.44 0.87 0.84 0.61 0.70 0.61 1.10 1.13 1.17 1.06 0.97 1.59
2.86 2.84 3.05 3.21 3.37 3.60 3.98 4.91 5.40 5.15 5.86 10.40 8.58 3.32 1.75 1.22 0.95 1.54 1.75 1.22 0.56 0.56 0.99 1.05 0.59 0.30 0.52 0.80 0.73 0.72 0.74 0.77 0.68 0.27 0.27 0.41 0.72 0.90 1.52 0.90 0.43 0.94 1.10 0.92 0.63 0.73 0.80
2.86 2.72 2.79 3.02 3.08 3.06 3.22 3.81 5.04 6.28 7.63 10.81 6.56 2.37 2.19 2.21 1.40 1.77 1.70 0.84 0.73 0.81 1.15 0.68 0.46 0.76 0.64 0.36 0.51 0.69 0.55 0.43 0.48 0.44 0.49 0.67 0.80 0.95 1.12 0.56 0.49 0.94 0.87 0.51 0.32 0.27 0.36
2.41 2.34 2.30 2.44 2.69 2.95 3.14 3.38 3.93 5.60 8.03 6.96 4.07 2.39 3.52 2.97 1.41 0.85 0.62 0.62 0.76 0.71 1.04 0.61 0.44 0.75 0.49 0.31 0.55 0.62 0.39 0.22 0.30 0.26 0.37 0.61 0.70 1.32 1.20 0.73 1.42 1.01 0.40 0.32 0.33 0.33 0.28
2.30 2.24 2.19 2.19 2.20 2.54 2.74 2.74 3.04 3.94 5.59 6.05 3.85 2.82 3.12 2.51 1.06 0.64 0.54 0.62 0.77 0.93 0.97 0.87 0.56 0.54 0.70 0.93 1.21 0.99 0.55 0.39 0.21 0.34 0.42 0.43 0.84 1.65 1.32 0.86 0.62 0.27 0.16 0.25 0.34 0.33 0.36
2.00 1.89 1.87 2.12 2.08 2.12 2.44 2.46 2.32 2.59 3.82 5.86 4.51 3.03 3.22 2.93 1.41 0.46 0.62 0.70 0.91 1.07 1.07 0.79 0.58 0.64 0.95 1.55 1.60 1.29 0.68 0.42 0.36 0.29 0.47 0.71 0.96 1.82 1.48 1.37 0.69 0.22 0.15 0.08 0.15 0.47 0.43
1.82 1.79 1.86 1.87 2.07 2.08 2.11 2.17 2.26 2.19 3.07 4.85 4.76 3.43 4.63 4.33 1.72 0.72 0.79 0.87 0.84 1.06 1.34 0.86 0.82 0.94 1.11 1.58 1.61 0.80 0.54 0.43 0.59 0.42 0.33 0.63 1.28 1.93 1.60 1.98 0.70 0.16 0.19 0.24 0.81 1.05 0.72
1.46 1.55 1.75 1.75 1.86 1.88 1.87 1.82 2.03 2.44 3.25 4.73 4.22 3.24 4.26 4.17 2.02 0.95 0.78 0.83 0.78 1.04 1.48 1.25 1.60 1.46 1.74 1.83 1.31 0.94 0.63 0.42 0.41 0.29 0.36 0.48 1.04 1.12 1.32 1.79 1.04 0.36 0.54 0.97 1.05 0.79 0.56
1.48 1.41 1.46 1.60 1.70 1.69 1.70 1.82 1.94 2.52 3.51 4.76 4.51 3.08 3.74 4.51 2.98 1.29 0.72 0.67 0.58 0.67 1.24 1.61 1.36 1.13 1.25 1.50 1.37 1.14 0.89 0.62 0.49 0.81 0.45 0.73 0.68 0.93 0.90 0.77 0.69 0.62 0.89 0.76 0.74 0.80 0.46